Facebook Twitter

Wetterstation Station: 113890

aktuelles Wetter
  Temperatur Wetter Niederschlag Luftdruck Wind
Mo, 22:00 Uhr 21° - 0.1 mm 1019.1 hPa 11 km/h SW
Mo, 21:00 Uhr 22° - 0.1 mm 1018.6 hPa 7 km/h SW
Mo, 20:00 Uhr 24° bedeckt 0.1 mm 1017.7 hPa 18 km/h S
Mo, 19:00 Uhr 26° - 0 mm 1016.7 hPa 14 km/h SW
Mo, 18:00 Uhr 28° - 0 mm 1015.4 hPa 11 km/h SW
Mo, 17:00 Uhr 29° - 0 mm 1015.4 hPa 14 km/h SW
Mo, 16:00 Uhr 30° wolkig 0 mm 1015.6 hPa 11 km/h SW
Mo, 15:00 Uhr 29° - 0 mm 1015.7 hPa 11 km/h SW
Mo, 14:00 Uhr 28° wolkig 0 mm 1016.1 hPa 11 km/h SW
Mo, 13:00 Uhr 27° - 0 mm 1016.2 hPa 14 km/h SW
Mo, 12:00 Uhr 26° - 0 mm 1016.7 hPa 22 km/h SW
Mo, 11:00 Uhr 25° - 0 mm 1016.6 hPa 18 km/h SW
Mo, 10:00 Uhr 24° bewölkt 0 mm 1016.5 hPa 22 km/h SW
Mo, 09:00 Uhr 22° - 0 mm 1016.6 hPa 18 km/h SW
Mo, 08:00 Uhr 22° bedeckt 0 mm 1016.4 hPa 22 km/h SW
Mo, 07:00 Uhr 20° - 0 mm 1015.3 hPa 22 km/h SW
Mo, 06:00 Uhr 18° - 0 mm 1014.1 hPa 22 km/h SW
Mo, 05:00 Uhr 17° - 0 mm 1012.6 hPa 7 km/h S
Mo, 04:00 Uhr 17° - 0 mm 1010.9 hPa 7 km/h S
Mo, 03:00 Uhr 17° - 0 mm 1010.4 hPa 4 km/h S

Alle Zeitangaben MESZ